Preview of NWS' New Version of Forecast
This preview is not operational and should not be used for support decisions.

Regional Weather Roundup (RWR)

Issued by National Weather Service (NWS)

                            
000
ASUS46 KSEW 200910
RWRWA 

WASHINGTON REGIONAL WEATHER ROUNDUP
NATIONAL WEATHER SERVICE SEATTLE WA
200 AM PDT TUE AUG 20 2019

NOTE:"FAIR" INDICATES FEW OR NO CLOUDS BELOW 12,000 FEET WITH NO 
SIGNIFICANT WEATHER AND/OR OBSTRUCTIONS TO VISIBILITY.

WAZ507-509-555>559-201000-
SEATTLE, TACOMA, EVERETT, AND VICINITY
  
CITY           SKY/WX    TMP DP  RH WIND       PRES   REMARKS
EVERETT        CLEAR     57  50  77 N5        29.98S                  
BOEING FIELD   CLEAR     61  51  70 CALM      29.96S                  
RENTON         CLEAR     64  53  67 N8        29.95S                  
SEATAC AIRPORT PTCLDY    60  51  72 N6        29.97S                  
JBLM-MCCHORD   CLEAR     53  53 100 CALM      29.96S                  
PUYALLUP       DRIZZLE   55  55 100 CALM      29.97S                  
BREMERTON      CLEAR     53  49  86 CALM      29.97S                  
JBLM-FT LEWIS  CLEAR     56  56  99 CALM      29.95                   
TACOMA NARROWS CLEAR     59  49  69 N7        29.97R                  
$$
 
WAZ001-503-506-510-514-515-201000-
NORTH INTERIOR
  
CITY           SKY/WX    TMP DP  RH WIND       PRES   REMARKS
BELLINGHAM     PTCLDY    54  50  86 CALM      29.96F                  
FRIDAY HARBOR  CLEAR     50  48  93 CALM      29.97F                  
EASTSOUND      PTCLDY    55  52  88 CALM      29.95F                  
PORT ANGELES   CLEAR     50  49  96 CALM      29.98S                  
EDIZ HOOK      FAIR      54  51  91 SW3       29.97S                  
PORT TOWNSEND  FAIR      50  48  93 CALM      29.96F FOG              
NAS WHIDBEY    PTCLDY    55  50  83 CALM      30.00F                  
ARLINGTON      PTCLDY    53  50  89 CALM      29.97S                  
BURLINGTON     CLEAR     55  52  88 CALM      29.97S                  
$$
 
WAZ020-022-039-040-504-511-512-201000-
SOUTHWEST INTERIOR
  
CITY           SKY/WX    TMP DP  RH WIND       PRES   REMARKS
SHELTON        CLEAR     51  48  89 NW3       29.94F                  
OLYMPIA        CLEAR     55  53  93 CALM      29.96S                  
CHEHALIS       FAIR      55  55 100 CALM      29.96S                  
KELSO          CLEAR     57  55  93 CALM      29.96F                  
VANCOUVER      CLEAR     59  54  83 CALM      29.93F                  
SCAPPOOSE, OR  CLEAR     57  54  89 CALM      29.93S                  
PORTLAND, OR   CLEAR     64  56  75 NW7       29.94S                  
$$
 
WAZ021-516-517-201000-
WASHINGTON COAST
  
CITY           SKY/WX    TMP DP  RH WIND       PRES   REMARKS
FORKS          CLEAR     50  49  96 E5        29.96F                  
HOQUIAM        CLEAR     54  54 100 E5        29.96S                  
ASTORIA, OR    CLEAR     54  51  90 SE3       29.94F                  
$$
 
WAZ019-023-024-040-567>569-201000-
CASCADE MOUNTAINS AND COLUMBIA GORGE
  
CITY           SKY/WX    TMP DP  RH WIND       PRES   REMARKS
STAMPEDE PASS  CLEAR     61  38  42 SW3       30.05S                  
TROUTDALE, OR  CLEAR     60  54  80 CALM      29.94S                  
HOOD RIVER, OR SUNNY     55  50  82 CALM      29.93R                  
THE DALLES, OR CLEAR     66  47  50 SW5       29.89R                  
$$

WAZ026-027-041>044-520-521-201000-
EAST SLOPES
  
CITY           SKY/WX    TMP DP  RH WIND       PRES   REMARKS
OMAK           PTCLDY    69  39  33 N10       29.93R                  
WENATCHEE      CLEAR     68  47  46 W6        29.92S                  
ELLENSBURG     CLEAR     54  47  77 NW6       29.95R                  
YAKIMA         CLEAR     63  50  62 W9        29.91S                  
SUNNYSIDE ARPT SUNNY     58  55  88 W3        29.89                   
YAKIMA TC      FAIR      63  39  41 E7        29.91R                  
$$

WAZ028-034-035-201000-
COLUMBIA BASIN
  
CITY           SKY/WX    TMP DP  RH WIND       PRES   REMARKS
EPHRATA        PTCLDY    64  46  52 N7        29.90S                  
MOSES LAKE     PTCLDY    62  49  62 N5        29.90S                  
PASCO          PTCLDY    61  55  81 NE3       29.88R                  
RICHLAND ARPT  MOSUNNY   66  56  70 CALM      29.87                   
HERMISTON, OR  PTCLDY    63  47  55 CALM      29.88S                  
$$

WAZ036>038-201000-
NORTHEAST WASHINGTON
  
CITY           SKY/WX    TMP DP  RH WIND       PRES   REMARKS
SPOKANE GEIGER PTCLDY    66  41  40 SE3       29.98R                  
SPOKANE FELTS  CLEAR     61  46  57 NE5       29.97S                  
FAIRCHILD AFB  PTCLDY    62  44  51 CALM      29.98                   
COEURDALENE,ID CLEAR     55  46  71 NE3       30.00R                  
DEER PARK      CLEAR     51  42  71 CALM      29.98R                  
$$

WAZ029>033-201000-
SOUTHEAST WASHINGTON
  
CITY           SKY/WX    TMP DP  RH WIND       PRES   REMARKS
PULLMAN        PTCLDY    56  42  59 CALM      30.00S                  
LEWISTON, ID   PTCLDY    67  42  40 CALM      29.93R                  
WALLA WALLA    PTCLDY    67  44  43 E7        29.90S                  
PENDLETON, OR  PTCLDY    66  45  46 SE5       29.92R                  
$$